Wind_Speed
56 63 79 86 90 84 88 93 94 89 74 74 75 72 69 68 64 62 57 45 43 43 36 33 30 34 40 40 34 28 31 28 27 24 24 21 18 17 17 15 12 14 12 8 6
55 64 86 82 90 80 80 85 95 90 79 74 76 74 72 70 67 65 52 49 48 46 42 36 38 35 40 41 35 37 32 29 28 25 23 22 17 15 17 15 16 14 12 10 8
52 66 90 113 81 82 76 80 86 88 91 72 77 75 72 72 71 63 57 55 50 48 46 41 39 37 38 39 35 36 31 33 29 27 25 23 18 17 16 19 17 14 14 13 10
51 66 89 103 92 78 76 78 68 75 89 75 76 76 74 75 74 60 57 57 52 47 47 46 39 37 39 38 38 35 35 32 27 30 27 26 21 18 21 19 16 17 16 15 12
50 64 84 101 86 77 82 79 65 74 84 90 70 76 76 77 73 62 61 59 56 51 47 44 43 38 36 36 34 35 38 33 32 30 32 30 27 21 20 19 17 19 19 17 15
51 59 71 86 110 73 73 71 69 77 75 88 70 76 76 77 69 64 64 61 57 52 48 47 47 41 37 34 33 31 31 32 35 31 34 32 32 27 24 21 20 22 22 20 18
53 54 58 70 106 74 81 67 76 75 67 77 83 67 74 75 70 66 65 61 58 53 49 45 44 44 42 38 35 29 30 30 37 37 36 38 34 29 29 27 24 24 24 23 21
51 49 47 50 98 86 80 78 77 71 74 76 78 66 76 78 71 69 66 64 61 57 53 49 45 43 46 42 39 35 37 35 29 24 29 37 35 35 36 34 29 28 28 26 24
47 41 34 49 86 79 58 65 67 64 68 68 71 69 77 78 72 69 67 63 61 58 54 52 48 46 48 48 45 42 40 33 34 24 21 26 36 44 40 38 33 33 30 29 28
45 37 33 46 100 87 70 80 82 70 71 67 70 69 73 73 71 69 67 65 63 60 56 54 51 51 50 50 50 46 38 30 28 28 27 29 25 36 42 40 36 34 33 31 30
46 55 41 45 76 78 66 69 74 72 77 76 78 70 64 70 72 71 68 66 63 61 60 60 58 58 52 49 46 44 40 38 35 31 31 29 20 28 38 39 37 33 34 33 31
55 54 35 62 77 79 64 79 78 70 76 72 69 69 58 64 71 73 69 67 65 63 62 61 59 55 52 49 50 46 45 36 39 37 33 30 20 18 24 29 37 37 37 35 36
55 50 42 46 69 83 78 79 69 69 73 70 69 64 69 60 70 70 72 68 64 64 64 63 55 51 59 51 49 48 49 42 39 34 35 32 27 24 16 19 23 31 35 36 40
64 56 42 52 69 81 77 63 67 72 74 72 77 70 64 64 72 70 68 70 67 64 61 61 65 58 54 52 51 49 48 44 40 38 40 39 33 29 23 19 23 21 14 20 35
58 50 47 59 64 66 53 49 68 77 76 75 77 71 69 68 74 75 70 66 66 64 63 64 61 60 41 53 52 49 47 46 40 38 44 41 44 31 31 25 21 20 23 19 19
56 52 52 56 76 67 57 70 72 76 86 82 79 69 76 70 69 72 70 70 67 66 63 62 58 59 60 51 49 50 47 45 47 49 45 40 45 39 27 22 22 17 20 24 25
58 54 61 63 63 76 60 57 78 86 80 80 80 82 79 71 70 71 66 69 73 70 66 62 60 59 57 53 52 50 45 47 49 52 54 50 48 46 31 26 25 29 29 29 26
57 57 71 72 73 70 76 77 85 80 77 77 77 81 81 75 73 77 74 72 67 66 67 67 67 62 61 58 55 55 53 50 49 49 49 52 53 50 37 35 32 33 31 32 35
54 55 70 80 67 80 77 80 87 84 84 64 71 82 73 81 79 75 69 63 65 66 64 62 64 63 60 58 54 55 52 49 49 48 47 50 47 48 42 36 38 36 33 33 30
53 57 67 76 71 75 78 80 82 79 86 86 60 75 82 72 83 69 68 64 64 66 65 63 63 64 63 61 60 54 52 51 50 50 50 49 49 46 46 41 39 41 42 41 44
50 55 67 72 75 69 73 79 78 78 79 78 77 61 77 76 66 66 56 62 64 64 66 65 64 65 64 58 55 55 56 56 55 54 53 50 47 41 40 42 41 41 43 44 45
48 55 66 70 72 66 63 77 74 83 76 80 83 63 60 75 66 62 66 63 62 65 66 69 66 62 60 62 60 60 58 55 53 52 52 53 48 45 43 45 46 46 45 45 45
46 59 69 71 63 53 65 69 73 68 78 82 72 74 60 52 72 65 61 67 59 62 64 62 67 65 64 60 62 59 59 57 56 59 57 58 38 44 46 47 48 49 46 46 47
48 55 62 60 62 54 67 71 56 68 79 82 79 74 74 60 60 70 65 64 62 61 65 65 65 65 61 55 54 57 59 57 52 52 51 52 40 50 47 46 48 47 49 47 48
39 41 49 52 55 50 63 77 68 58 67 75 78 71 65 62 64 62 63 69 69 64 60 64 62 59 60 59 56 53 49 45 47 52 54 45 49 48 50 43 48 51 50 51 46
28 34 50 55 48 47 58 72 64 62 62 64 75 67 70 55 48 45 53 62 58 60 65 61 63 58 51 54 58 55 53 51 57 52 53 49 52 50 47 50 43 43 46 49 48
32 33 41 53 45 46 58 65 60 61 67 67 64 67 69 71 60 51 48 45 53 58 60 58 55 57 63 58 54 56 51 54 54 52 52 54 41 34 47 52 53 49 49 46 47
Wind_Direction
254 240 227 218 217 217 227 222 221 223 224 215 213 212 215 216 214 215 218 217 215 214 216 219 218 210 209 219 210 213 215 214 218 224 231 233 242 243 240 243 244 245 247 247 241
254 234 219 204 206 205 218 224 220 221 222 220 212 212 214 216 216 213 215 218 215 213 214 216 223 213 219 213 217 216 213 216 218 221 229 227 237 235 238 240 244 248 253 253 253
248 228 221 219 202 199 205 221 222 221 223 222 214 210 214 214 217 212 215 218 215 214 215 217 214 215 216 214 221 215 215 224 220 222 227 224 229 227 232 239 239 244 252 255 253
244 228 221 220 209 196 199 204 200 212 223 219 217 211 212 214 215 212 215 219 219 217 216 216 216 218 219 217 221 219 224 223 225 222 226 222 225 223 227 235 240 242 246 252 252
239 224 219 220 211 195 193 204 205 215 219 220 218 213 211 212 213 211 216 217 219 218 218 219 219 220 224 222 220 223 224 228 224 222 225 223 222 223 231 234 236 241 243 248 253
233 224 218 222 215 194 193 201 207 207 215 221 216 214 212 212 213 211 216 217 220 220 221 218 217 218 221 219 221 222 220 228 222 223 224 228 225 227 236 234 232 237 242 245 247
228 225 221 220 214 192 190 187 198 195 201 216 221 218 213 214 212 212 213 217 218 220 222 223 221 222 222 223 222 221 217 222 224 228 237 227 227 230 236 237 231 234 237 241 246
227 221 225 214 206 192 183 189 203 204 212 216 214 216 212 215 211 212 212 215 216 218 220 222 224 222 221 222 221 219 218 223 220 228 225 229 226 226 233 238 236 232 234 239 242
222 214 212 218 213 195 182 195 195 194 201 208 208 212 211 212 212 211 212 214 215 217 218 220 222 220 221 219 222 223 225 224 225 231 230 242 241 235 233 234 242 240 233 236 238
219 193 190 207 217 207 190 192 198 198 202 204 207 209 213 210 212 212 212 214 214 214 216 221 220 222 222 221 224 225 229 230 235 235 240 247 246 238 228 232 238 246 240 233 237
206 195 195 209 213 185 187 187 189 195 198 199 197 204 211 208 209 213 213 214 214 213 216 220 220 223 226 225 227 231 229 230 235 231 241 249 246 232 232 234 237 243 246 242 237
201 205 193 208 210 203 198 191 194 196 196 197 208 205 212 210 211 211 214 214 215 216 215 215 220 225 227 222 227 228 229 229 235 239 242 244 231 238 238 242 242 245 245 246 243
201 203 205 211 211 204 190 191 197 198 196 196 202 206 205 212 209 212 215 214 216 218 217 217 216 219 222 221 225 227 229 234 238 235 242 239 227 230 233 237 249 254 258 256 252
203 194 201 208 203 200 177 184 195 198 199 202 193 194 201 202 206 206 211 214 217 218 217 218 216 223 222 221 226 227 233 237 234 243 240 235 227 231 235 243 242 248 264 265 255
201 205 195 202 203 196 180 191 191 200 197 196 195 191 199 211 212 203 204 212 216 220 220 220 220 221 222 220 223 227 233 232 232 240 241 233 241 224 240 244 253 252 246 250 255
205 200 194 192 208 194 196 196 193 200 199 196 190 191 196 201 201 206 206 205 211 214 218 222 223 224 225 230 228 229 233 233 237 237 235 239 245 235 239 241 243 247 255 255 253
207 196 191 190 192 197 187 204 192 199 198 199 198 195 197 205 203 204 207 208 207 208 213 215 222 225 228 226 225 228 230 234 234 237 240 244 249 255 248 245 246 259 271 269 266
216 198 184 177 176 190 193 196 194 197 196 199 195 194 202 203 211 207 205 207 207 209 215 218 217 220 223 225 229 230 229 233 237 240 245 250 250 256 258 262 264 262 264 265 263
218 201 182 174 171 180 184 194 194 197 201 189 198 202 198 205 208 206 206 205 208 209 210 217 220 221 224 226 228 229 228 232 236 240 245 252 255 260 261 256 257 258 256 260 265
223 210 190 179 176 178 182 195 196 200 205 199 202 201 198 194 203 203 204 204 204 209 211 214 218 222 223 225 226 227 232 233 233 236 242 247 251 254 259 255 255 258 259 259 263
224 221 188 178 179 185 188 193 196 203 202 204 206 204 201 204 205 211 217 208 202 206 212 218 217 222 225 226 228 231 234 235 237 238 241 244 247 251 253 258 255 253 253 255 257
221 223 196 179 184 188 192 187 196 202 200 205 210 211 213 204 211 209 209 203 205 207 213 215 216 221 223 225 227 230 231 237 242 243 245 248 241 248 250 252 254 253 251 254 255
224 220 193 181 184 190 190 184 193 198 203 201 201 209 210 212 210 211 207 208 209 211 213 214 217 219 222 223 223 227 233 237 239 242 241 245 237 243 249 253 255 255 257 256 255
224 224 207 199 189 188 192 188 185 200 204 207 209 214 217 218 209 211 210 209 212 215 218 224 228 226 227 232 236 233 235 238 243 242 243 247 238 249 250 255 256 256 258 257 256
225 227 221 206 188 190 192 190 192 191 202 210 209 211 209 208 204 206 210 209 214 219 219 224 228 231 234 236 234 236 238 240 242 243 245 240 242 252 254 254 256 255 256 256 260
226 226 215 200 193 189 192 190 199 192 198 205 210 210 205 193 190 193 208 213 219 217 224 225 228 233 234 235 239 241 237 240 245 246 250 248 246 253 256 257 260 260 260 261 262
222 226 221 203 189 190 192 189 197 204 208 208 204 210 215 219 223 218 219 218 219 220 223 226 227 232 237 240 241 242 246 250 249 250 255 253 248 256 254 252 252 253 256 259 263
Height
5585 5591 5598 5609 5621 5636 5648 5662 5675 5690 5701 5712 5720 5731 5740 5747 5756 5763 5771 5782 5786 5790 5796 5802 5806 5809 5812 5818 5822 5828 5832 5838 5841 5842 5845 5848 5849 5851 5854 5856 5856 5857 5859 5859 5860
5567 5573 5580 5591 5603 5620 5637 5650 5662 5676 5690 5704 5712 5721 5731 5739 5747 5755 5770 5775 5780 5785 5792 5798 5802 5805 5808 5812 5817 5822 5829 5834 5835 5838 5842 5844 5848 5849 5853 5853 5855 5858 5859 5859 5860
5552 5557 5562 5576 5587 5604 5624 5638 5652 5666 5679 5692 5704 5712 5723 5730 5738 5752 5761 5766 5775 5780 5785 5791 5795 5799 5804 5808 5814 5818 5826 5826 5832 5835 5838 5842 5844 5846 5848 5850 5853 5856 5858 5858 5859
5539 5542 5548 5557 5574 5591 5609 5628 5641 5655 5666 5682 5694 5705 5712 5720 5730 5746 5754 5759 5768 5774 5779 5785 5791 5796 5800 5805 5810 5815 5820 5824 5828 5831 5834 5838 5842 5842 5843 5847 5851 5854 5855 5857 5858
5523 5529 5536 5544 5562 5578 5595 5615 5632 5646 5657 5670 5683 5696 5701 5710 5725 5741 5746 5752 5760 5768 5774 5782 5787 5792 5797 5803 5806 5810 5815 5819 5823 5826 5830 5834 5837 5839 5840 5844 5848 5851 5852 5854 5856
5510 5516 5528 5535 5551 5565 5588 5606 5622 5635 5647 5660 5674 5684 5696 5705 5721 5732 5738 5747 5756 5763 5770 5776 5782 5789 5793 5798 5801 5806 5809 5814 5818 5821 5826 5830 5833 5837 5837 5840 5844 5847 5849 5851 5853
5499 5506 5518 5528 5540 5557 5577 5596 5613 5625 5636 5648 5666 5677 5691 5702 5709 5720 5730 5740 5748 5757 5763 5770 5778 5782 5789 5794 5797 5802 5805 5808 5812 5816 5820 5824 5829 5836 5834 5837 5839 5844 5845 5848 5851
5490 5499 5509 5518 5534 5548 5568 5589 5608 5620 5630 5641 5656 5665 5677 5686 5698 5709 5720 5730 5740 5749 5756 5762 5770 5777 5783 5789 5793 5796 5798 5801 5809 5813 5815 5820 5825 5827 5829 5832 5835 5838 5841 5844 5847
5483 5494 5502 5511 5523 5539 5558 5583 5600 5611 5623 5631 5638 5649 5660 5678 5693 5703 5713 5723 5733 5741 5749 5756 5763 5769 5774 5781 5786 5787 5790 5798 5804 5809 5811 5815 5818 5819 5825 5827 5830 5834 5836 5839 5842
5476 5487 5495 5508 5519 5537 5557 5575 5596 5605 5611 5620 5628 5637 5649 5673 5686 5695 5704 5715 5724 5733 5742 5749 5755 5761 5767 5772 5777 5783 5791 5798 5801 5805 5807 5809 5812 5813 5818 5822 5826 5829 5833 5834 5838
5469 5475 5488 5497 5507 5530 5544 5560 5571 5580 5588 5595 5606 5633 5649 5662 5671 5686 5696 5706 5715 5721 5730 5738 5747 5753 5761 5769 5776 5782 5786 5790 5794 5797 5799 5803 5807 5808 5813 5818 5821 5825 5829 5831 5834
5462 5468 5480 5491 5503 5516 5532 5549 5567 5580 5587 5595 5616 5628 5642 5657 5663 5674 5687 5697 5705 5715 5723 5732 5739 5750 5757 5764 5768 5775 5780 5786 5787 5791 5794 5798 5803 5804 5808 5815 5817 5819 5823 5826 5827
5458 5464 5473 5482 5492 5507 5526 5549 5564 5573 5581 5589 5606 5620 5630 5648 5655 5668 5681 5690 5699 5708 5716 5726 5737 5740 5749 5757 5762 5768 5773 5780 5783 5785 5788 5794 5797 5800 5805 5807 5812 5815 5817 5819 5822
5450 5458 5468 5476 5490 5505 5522 5541 5558 5568 5575 5582 5590 5602 5617 5631 5641 5656 5667 5680 5688 5699 5708 5718 5727 5733 5741 5749 5755 5761 5767 5772 5778 5780 5782 5786 5792 5795 5801 5805 5807 5811 5812 5813 5816
5441 5451 5461 5475 5489 5505 5525 5538 5554 5556 5560 5571 5581 5595 5612 5620 5637 5641 5655 5669 5681 5693 5703 5708 5719 5728 5735 5740 5748 5754 5761 5766 5771 5773 5774 5780 5781 5794 5796 5800 5805 5806 5807 5809 5810
5435 5443 5453 5470 5485 5503 5520 5534 5542 5539 5542 5554 5568 5579 5597 5608 5622 5633 5644 5656 5671 5682 5691 5702 5714 5720 5728 5734 5741 5745 5752 5758 5763 5765 5766 5774 5776 5786 5792 5798 5799 5800 5802 5803 5803
5427 5437 5447 5464 5483 5497 5506 5519 5518 5516 5532 5547 5560 5576 5590 5598 5608 5621 5638 5646 5656 5667 5680 5692 5700 5711 5718 5725 5731 5737 5746 5749 5752 5755 5760 5765 5768 5773 5788 5790 5793 5793 5796 5797 5798
5421 5430 5441 5456 5472 5484 5491 5496 5498 5507 5523 5538 5558 5574 5581 5593 5605 5612 5625 5638 5653 5666 5675 5681 5691 5700 5707 5714 5725 5731 5736 5742 5746 5750 5756 5758 5763 5768 5781 5784 5787 5787 5789 5791 5792
5413 5421 5430 5447 5459 5470 5477 5480 5489 5500 5522 5537 5549 5562 5574 5581 5594 5605 5624 5637 5647 5654 5668 5676 5683 5694 5702 5706 5717 5720 5726 5734 5738 5743 5747 5752 5760 5763 5767 5774 5777 5779 5781 5782 5784
5407 5413 5421 5433 5446 5460 5462 5473 5490 5504 5520 5533 5543 5550 5563 5569 5586 5607 5614 5631 5641 5651 5660 5668 5676 5683 5689 5695 5701 5713 5719 5726 5729 5734 5737 5745 5748 5754 5758 5763 5768 5770 5773 5775 5776
5399 5403 5411 5425 5439 5447 5457 5471 5485 5500 5515 5525 5539 5551 5562 5576 5594 5606 5618 5628 5633 5643 5651 5659 5666 5674 5679 5688 5699 5705 5710 5714 5719 5723 5727 5735 5742 5748 5752 5753 5757 5760 5761 5763 5766
5392 5397 5406 5419 5430 5439 5453 5468 5481 5495 5510 5523 5540 5552 5565 5578 5587 5597 5608 5620 5625 5633 5639 5644 5654 5666 5676 5681 5687 5692 5699 5704 5709 5716 5721 5724 5736 5739 5743 5743 5744 5749 5751 5753 5754
5389 5392 5401 5412 5428 5440 5450 5465 5480 5490 5501 5514 5528 5542 5558 5567 5577 5593 5602 5609 5619 5627 5632 5640 5645 5654 5659 5669 5677 5684 5690 5696 5699 5701 5710 5714 5732 5731 5732 5733 5735 5736 5738 5742 5744
5384 5390 5401 5413 5427 5435 5446 5459 5475 5490 5503 5514 5527 5538 5551 5561 5572 5581 5589 5600 5614 5621 5625 5633 5640 5650 5660 5670 5674 5677 5681 5685 5688 5691 5707 5708 5728 5720 5724 5724 5724 5725 5725 5728 5731
5386 5393 5402 5412 5425 5433 5444 5458 5473 5480 5488 5503 5515 5534 5546 5552 5562 5572 5584 5594 5602 5610 5616 5625 5635 5645 5651 5655 5662 5667 5670 5671 5674 5692 5688 5712 5710 5713 5712 5715 5713 5714 5713 5713 5716
5386 5390 5396 5405 5419 5429 5437 5450 5464 5476 5487 5500 5519 5532 5542 5550 5566 5578 5585 5590 5597 5603 5610 5620 5629 5634 5639 5646 5651 5655 5659 5664 5673 5684 5681 5699 5701 5702 5706 5705 5708 5706 5704 5705 5707
5381 5386 5391 5404 5418 5428 5435 5446 5461 5473 5486 5501 5514 5525 5537 5551 5555 5567 5576 5581 5588 5595 5605 5611 5616 5624 5631 5637 5639 5639 5660 5661 5668 5672 5679 5681 5700 5693 5692 5693 5693 5690 5693 5697 5699